This demonstration page uses our WeatherBlox Daily Observations layout. Learn more.

Left ArrowRight Arrow

41.86663, -103.66717

Hourly Observations for May 6, 2021

Temp ( °F °C ) Dew Point ( °F °C ) Humidity (%) Winds ( mph kmh ) Pressure ( in mb ) Visibility ( mi km ) Precip ( " mm )
12:53 am 00:53 Cloudy 40 4.4 35 1.7 83 83 NW 3 6 30.32 1027 10 16.0934 N/A
1:53 am 01:53 Cloudy 40 4.4 36 2.2 86 86 NNE 7 11 30.32 1027 10 16.0934 N/A
2:53 am 02:53 Cloudy 41 5 36 2.2 82 82 NW 5 7 30.32 1027 10 16.0934 N/A
3:53 am 03:53 Mostly Cloudy 38 3.3 35 1.7 89 89 NW 7 11 30.32 1027 10 16.0934 N/A
4:53 am 04:53 Clear 37 2.8 33 0.6 86 86 W 3 6 30.33 1027 9 14.48406 N/A
5:53 am 05:53 Sunny 35 1.7 32 undefined 89 89 NNW 6 9 30.35 1028 7 11.26538 N/A
6:53 am 06:53 Sunny 41 5 36 2.2 82 82 NNW 8 13 30.36 1028 10 16.0934 N/A
7:53 am 07:53 Sunny 46 7.8 39 3.9 77 77 WNW 9 15 30.35 1028 10 16.0934 N/A
8:53 am 08:53 Sunny 50 10 40 4.4 68 68 WNW 7 11 30.35 1028 10 16.0934 N/A
9:53 am 09:53 Sunny 55 12.8 36 2.2 49 49 WNW 5 7 30.32 1027 10 16.0934 N/A
10:53 am 10:53 Sunny 59 15 34 1.1 39 39 VRB 3 6 30.29 1026 10 16.0934 N/A
11:53 am 11:53 Sunny 63 17.2 36 2.2 37 37 VRB 7 11 30.25 1025 10 16.0934 N/A
12:53 pm 12:53 Sunny 67 19.4 33 0.6 28 28 SSW 13 20 30.2 1023 10 16.0934 N/A
1:53 pm 13:53 Sunny 70 21.1 32 undefined 25 25 SSW 10 17 30.16 1021 10 16.0934 N/A
2:53 pm 14:53 Sunny 71 21.7 31 -0.6 23 23 NNW 8 13 30.12 1020 10 16.0934 N/A
3:53 pm 15:53 Sunny 72 22.2 30 -1.1 21 21 N N/A 30.11 1020 10 16.0934 N/A
4:53 pm 16:53 Sunny 72 22.2 28 -2.2 19 19 NW 6 9 30.09 1019 10 16.0934 N/A
5:53 pm 17:53 Sunny 72 22.2 29 -1.7 20 20 E 3 6 30.08 1019 10 16.0934 N/A
6:53 pm 18:53 Sunny 70 21.1 31 -0.6 23 23 ESE 8 13 30.06 1018 10 16.0934 N/A
7:53 pm 19:53 Sunny 63 17.2 36 2.2 37 37 ESE 10 17 30.07 1018 10 16.0934 N/A
8:53 pm 20:53 Clear 60 15.6 37 2.8 42 42 SE 8 13 30.08 1019 10 16.0934 N/A
9:53 pm 21:53 Clear 50 10 34 1.1 54 54 E 7 11 30.1 1019 10 16.0934 N/A
10:53 pm 22:53 Clear 49 9.4 34 1.1 56 56 ESE 7 11 30.09 1019 10 16.0934 N/A
11:53 pm 23:53 Clear 49 9.4 36 2.2 61 61 ESE 9 15 30.06 1018 10 16.0934 N/A

Powered by AerisWeather